[[{"header":{"parameterUnit":"m.s-1","parameterCategory":1,"la1":30.2991,"la2":30.254,"lo1":-89.0895,"lo2":-89.0444,"dy":0.0017,"dx":0.0017,"nx":28,"ny":28,"refTime":"2025-05-15T21:00:00:Z","depth":0,"parameterNumber":2,"parameterNumberName":"U-component_of_WINDS"},"data":[0,0,0,0,0,0,0,0,0,0,0,0,0,0,0,0,0,0,0,0,0,0,0,0,0,0,0,0,0,0,0,0,0,0,0,0,0,0,0,0,0,0,0,0,0,0,0,0,0,0,0,0,0,0,0,0,0,0,-0.2704,-0.2704,0,-0.274,-0.2741,-0.2741,-0.2777,-0.2777,-0.2778,-0.2778,-0.2814,-0.2814,-0.2815,0,0,0,0,0,0,0,0,0,0,0,0,0,-0.2665,-0.2665,-0.2704,-0.2704,-0.2705,-0.274,-0.2741,-0.2741,-0.2777,-0.2777,-0.2778,-0.2778,-0.2814,-0.2814,-0.2815,0,0,0,0,0,0,0,0,0,0,0,0,0,-0.2689,-0.2665,-0.2704,-0.2727,-0.2729,-0.274,-0.2741,-0.2741,-0.2777,-0.2777,-0.2778,-0.2779,-0.2813,-0.2814,-0.2815,-0.2805,0,0,-0.2817,-0.2818,0,0,0,0,0,0,0,0,-0.2688,-0.2691,-0.2723,-0.2725,-0.2728,-0.2755,-0.274,-0.2763,-0.2776,-0.2759,-0.2778,-0.2779,-0.2793,-0.2796,-0.2801,-0.2807,-0.2808,-0.2817,-0.2818,-0.2818,-0.2818,0,0,0,0,0,0,0,-0.2686,-0.2689,-0.2718,-0.2723,-0.2726,-0.2735,-0.2739,-0.2744,-0.2771,-0.276,-0.2763,-0.2767,-0.2795,-0.28,-0.2802,-0.2809,-0.2817,-0.2818,-0.2818,-0.2819,-0.281,-0.281,0,0,0,0,0,0,-0.2681,-0.2688,-0.2717,-0.2719,-0.2709,-0.2735,-0.274,-0.2745,-0.2772,-0.2776,-0.2766,-0.2768,-0.2799,-0.2801,-0.2804,-0.2795,-0.2818,-0.2819,-0.2819,-0.2811,-0.281,-0.2809,0,0,0,0,0,0,-0.268,-0.2683,-0.2715,-0.2704,-0.2709,-0.2735,-0.2741,-0.2746,-0.2751,-0.2776,-0.2781,-0.2767,-0.2799,-0.2803,-0.2805,-0.2797,-0.2819,-0.282,-0.2812,-0.2811,-0.281,-0.2776,0,0,0,0,0,0,-0.2679,-0.2683,-0.2679,-0.2704,-0.2709,-0.2716,-0.274,-0.2746,-0.2753,-0.2756,-0.2778,-0.2782,-0.28,-0.2804,-0.2806,-0.2798,-0.282,-0.2813,-0.2811,-0.281,-0.2778,-0.2774,-0.2771,0,0,0,0,0,-0.2677,-0.2668,-0.2679,-0.2682,-0.2706,-0.2716,-0.2719,-0.274,-0.2752,-0.2749,-0.2765,-0.2781,-0.2797,-0.2804,-0.2806,-0.2799,-0.2813,-0.2812,-0.281,-0.278,-0.2775,-0.2771,0,0,0,0,0,0,-0.264,-0.2671,-0.2684,-0.2682,-0.2696,-0.2722,-0.2718,-0.2734,-0.2745,-0.2747,-0.2773,-0.2777,-0.2777,-0.2788,-0.2795,-0.2791,-0.2808,-0.2806,-0.2784,-0.278,-0.2776,-0.2773,-0.2821,0,0,0,0,0,-0.2632,-0.2638,-0.2665,-0.2661,-0.2667,-0.2691,-0.2697,-0.2712,-0.2727,-0.2733,-0.2749,-0.2763,-0.2772,-0.2776,-0.2785,-0.2781,-0.2786,-0.2777,-0.2773,-0.277,-0.2768,-0.2768,-0.2764,-0.2804,-0.2804,-0.2804,0,0,-0.2615,-0.2633,-0.2635,-0.2654,-0.2666,-0.2672,-0.2696,-0.27,-0.2705,-0.2734,-0.2737,-0.275,-0.2767,-0.2766,-0.2767,-0.2775,-0.2759,-0.2768,-0.2765,-0.2765,-0.2766,-0.2762,-0.2758,-0.2803,-0.2803,-0.2804,0,0,-0.2587,-0.2601,-0.2599,-0.2612,-0.2631,-0.2648,-0.2647,-0.2671,-0.2681,-0.2685,-0.2707,-0.2713,-0.2726,-0.2738,-0.2745,-0.2723,-0.2739,-0.2725,-0.2706,-0.2705,-0.2702,-0.2699,-0.2691,-0.2688,-0.2724,-0.2724,-0.2724,0,-0.2563,-0.2572,-0.2596,-0.26,-0.2608,-0.2636,-0.2635,-0.2645,-0.2666,-0.2671,-0.2681,-0.2699,-0.2712,-0.2715,-0.271,-0.2715,-0.2716,-0.2722,-0.27,-0.2698,-0.2696,-0.2689,-0.2686,-0.2722,-0.2722,-0.2722,-0.2723,0,-0.2542,-0.2549,-0.2545,-0.2566,-0.2573,-0.2574,-0.2599,-0.2604,-0.2619,-0.2635,-0.2639,-0.2656,-0.267,-0.2672,-0.2686,-0.2677,-0.2682,-0.2695,-0.2712,-0.2689,-0.2683,-0.2681,-0.2719,-0.272,-0.2721,-0.2721,0,0,-0.2491,-0.2526,-0.2524,-0.2534,-0.2558,-0.2563,-0.2566,-0.258,-0.2584,-0.2598,-0.2601,-0.2612,-0.2626,-0.2634,-0.2651,-0.265,-0.2632,-0.2664,-0.2665,-0.2657,-0.2623,-0.2613,-0.2609,-0.2643,-0.2643,-0.2642,-0.2622,0,-0.2466,-0.2474,-0.2496,-0.2496,-0.2503,-0.253,-0.2532,-0.2547,-0.2562,-0.257,-0.2586,-0.2594,-0.2611,-0.2617,-0.2617,-0.2634,-0.2625,-0.2636,-0.2646,-0.2646,-0.264,-0.2606,-0.2595,-0.2575,-0.262,-0.2619,-0.2619,0,-0.2439,-0.2452,-0.2453,-0.2478,-0.2482,-0.2483,-0.2499,-0.2506,-0.2523,-0.2534,-0.2545,-0.2563,-0.2568,-0.2584,-0.2591,-0.2598,-0.2603,-0.2612,-0.2612,-0.2614,-0.2631,-0.2607,-0.2569,-0.2566,-0.2616,-0.2616,-0.2616,0,-0.2401,-0.2419,-0.2423,-0.2431,-0.246,-0.246,-0.2472,-0.2491,-0.2499,-0.2512,-0.2517,-0.253,-0.2537,-0.2547,-0.2569,-0.2579,-0.2573,-0.2591,-0.2583,-0.2582,-0.258,-0.258,-0.2542,-0.2584,-0.2584,-0.2584,-0.2584,0,-0.2372,-0.2372,-0.2407,-0.2408,-0.2409,-0.2435,-0.2435,-0.245,-0.2466,-0.2472,-0.2496,-0.25,-0.2529,-0.2536,-0.2553,-0.2557,-0.256,-0.2569,-0.2573,-0.2566,-0.2565,-0.257,-0.2572,-0.2583,-0.2583,-0.2583,-0.2583,0,-0.233,-0.2353,-0.2359,-0.2387,-0.2394,-0.2393,-0.2416,-0.2419,-0.2436,-0.2443,-0.2446,-0.2472,-0.2483,-0.2506,-0.2522,-0.2533,-0.2533,-0.2541,-0.2527,-0.253,-0.252,-0.252,-0.2484,-0.2481,-0.2524,-0.2524,-0.2523,0,-0.231,-0.231,-0.2338,-0.2344,-0.2355,-0.2364,-0.2372,-0.2398,-0.2406,-0.2427,-0.2427,-0.244,-0.2451,-0.2467,-0.2487,-0.25,-0.2509,-0.2495,-0.2511,-0.2504,-0.2509,-0.2508,-0.2509,-0.2491,-0.2491,-0.249,-0.249,0,-0.2271,-0.2283,-0.2294,-0.2309,-0.2318,-0.2331,-0.2346,-0.2349,-0.2378,-0.2385,-0.2397,-0.2406,-0.2423,-0.2436,-0.2452,-0.2464,-0.2482,-0.2485,-0.2484,-0.2477,-0.2469,-0.2473,-0.2517,-0.2486,-0.2486,-0.2486,-0.2487,-0.2487,-0.2239,-0.2242,-0.2262,-0.2274,-0.2288,-0.2301,-0.2305,-0.2323,-0.2334,-0.235,-0.2365,-0.2375,-0.2394,-0.2418,-0.243,-0.2438,-0.2447,-0.2445,-0.2444,-0.2443,-0.244,-0.2468,-0.2441,-0.2441,-0.2441,-0.2441,-0.2441,0,-0.2202,-0.2217,-0.2228,-0.2248,-0.2257,-0.2274,-0.2291,-0.2298,-0.2307,-0.2323,-0.2334,-0.2348,-0.236,-0.2382,-0.2396,-0.2399,-0.2407,-0.2402,-0.2402,-0.2404,-0.2432,-0.2431,-0.2395,-0.2395,-0.2395,-0.2395,-0.2395,-0.2395,-0.2184,-0.2189,-0.2204,-0.2216,-0.2231,-0.2241,-0.225,-0.2262,-0.2276,-0.229,-0.2301,-0.2315,-0.2334,-0.235,-0.2362,-0.2369,-0.2373,-0.2364,-0.2373,-0.2398,-0.2402,-0.2406,-0.2406,-0.2365,-0.2365,-0.2345,-0.2345,-0.2345]},{"header":{"parameterUnit":"m.s-1","parameterCategory":1,"la1":30.2991,"la2":30.254,"lo1":-89.0895,"lo2":-89.0444,"dy":0.0017,"dx":0.0017,"nx":28,"ny":28,"refTime":"2025-05-15T21:00:00:Z","depth":0,"parameterNumber":3,"parameterNumberName":"V-component_of_WINDS"},"data":[0,0,0,0,0,0,0,0,0,0,0,0,0,0,0,0,0,0,0,0,0,0,0,0,0,0,0,0,0,0,0,0,0,0,0,0,0,0,0,0,0,0,0,0,0,0,0,0,0,0,0,0,0,0,0,0,0,0,5.6591,5.6591,0,5.6653,5.6654,5.6654,5.6622,5.662,5.6618,5.6617,5.6676,5.6679,5.6682,0,0,0,0,0,0,0,0,0,0,0,0,0,5.644,5.6443,5.6591,5.6591,5.6592,5.6653,5.6654,5.6655,5.6622,5.662,5.6618,5.6616,5.6675,5.6679,5.6683,0,0,0,0,0,0,0,0,0,0,0,0,0,5.6504,5.6444,5.659,5.6583,5.6583,5.6653,5.6654,5.6655,5.6622,5.662,5.6617,5.6615,5.6674,5.6679,5.6683,5.6762,0,0,5.6698,5.67,0,0,0,0,0,0,0,0,5.65,5.651,5.6583,5.6584,5.6584,5.6627,5.6623,5.6691,5.6623,5.6607,5.6617,5.6614,5.6662,5.6667,5.6684,5.6765,5.6767,5.6698,5.6701,5.6703,5.6704,0,0,0,0,0,0,0,5.6496,5.6507,5.6615,5.6585,5.6585,5.6576,5.6582,5.6635,5.6647,5.6608,5.6606,5.6614,5.6661,5.668,5.6685,5.6768,5.6698,5.6702,5.6705,5.6707,5.6918,5.6921,0,0,0,0,0,0,5.6493,5.6503,5.6613,5.6617,5.6535,5.6581,5.6588,5.6616,5.6647,5.6649,5.6616,5.6613,5.6673,5.668,5.6687,5.6783,5.6703,5.6707,5.671,5.6916,5.6919,5.6922,0,0,0,0,0,0,5.6489,5.6503,5.6611,5.656,5.6573,5.6586,5.6617,5.6618,5.6637,5.6653,5.6655,5.6633,5.6671,5.6681,5.6744,5.6784,5.6709,5.6714,5.6912,5.6917,5.6921,5.6974,0,0,0,0,0,0,5.6485,5.6502,5.6532,5.6561,5.6576,5.6668,5.662,5.6621,5.6645,5.6641,5.6669,5.6671,5.667,5.6738,5.6749,5.6789,5.6717,5.6909,5.6914,5.6919,5.6968,5.6979,5.6988,0,0,0,0,0,5.648,5.6543,5.6534,5.6547,5.6614,5.667,5.6678,5.6677,5.6649,5.6679,5.669,5.6671,5.6778,5.6744,5.6757,5.6799,5.6906,5.6913,5.6919,5.6964,5.6977,5.6988,0,0,0,0,0,0,5.6517,5.6547,5.6537,5.6611,5.6639,5.6664,5.6703,5.669,5.6725,5.6719,5.6714,5.6721,5.6787,5.68,5.6761,5.6878,5.6838,5.6847,5.6868,5.688,5.689,5.6885,5.6721,0,0,0,0,0,5.6534,5.6578,5.6601,5.6665,5.6679,5.6689,5.6713,5.671,5.6737,5.6748,5.6763,5.6789,5.6829,5.6855,5.6893,5.697,5.6976,5.7006,5.7016,5.7024,5.7031,5.7074,5.7088,5.6943,5.6943,5.6943,0,0,5.6569,5.6591,5.6619,5.6673,5.6694,5.6739,5.6699,5.6747,5.678,5.6755,5.6817,5.6829,5.6858,5.6929,5.6961,5.6941,5.7073,5.7032,5.7038,5.7042,5.7082,5.7096,5.7108,5.6947,5.6946,5.6946,0,0,5.6657,5.6678,5.6734,5.6756,5.6789,5.6796,5.6809,5.6838,5.6845,5.6908,5.689,5.6929,5.6997,5.7019,5.7039,5.7138,5.7122,5.715,5.7202,5.7244,5.7256,5.7266,5.7301,5.7314,5.7158,5.7158,5.7158,0,5.6696,5.6764,5.6764,5.6815,5.6839,5.6821,5.6878,5.6899,5.6941,5.6958,5.6936,5.7023,5.7041,5.7118,5.7143,5.7159,5.7175,5.7147,5.7254,5.7264,5.7274,5.7308,5.7321,5.7162,5.7161,5.7161,5.7161,0,5.6811,5.6859,5.69,5.6944,5.6974,5.7027,5.7034,5.7064,5.7059,5.7067,5.7132,5.7153,5.7196,5.7214,5.7208,5.729,5.7277,5.7255,5.7214,5.7291,5.7323,5.7336,5.7166,5.7165,5.7164,5.7163,0,0,5.6921,5.6967,5.6982,5.7003,5.7039,5.7075,5.7128,5.7172,5.7197,5.7228,5.7272,5.7332,5.7313,5.7335,5.7332,5.7369,5.7447,5.7343,5.7343,5.7362,5.754,5.7557,5.7572,5.7437,5.744,5.7442,5.7538,0,5.7011,5.7106,5.7108,5.7194,5.7239,5.7223,5.7269,5.7296,5.7306,5.7345,5.7355,5.7398,5.7368,5.7383,5.7418,5.743,5.7483,5.7423,5.7478,5.748,5.7471,5.7588,5.7605,5.7695,5.755,5.7552,5.7554,0,5.7128,5.7166,5.7257,5.7289,5.7307,5.7349,5.739,5.7427,5.7458,5.7462,5.749,5.7482,5.7536,5.7494,5.7568,5.7528,5.755,5.756,5.7563,5.7568,5.7521,5.7596,5.7724,5.7737,5.7573,5.7572,5.757,0,5.72,5.7273,5.7338,5.7356,5.7394,5.7424,5.7441,5.7469,5.7496,5.7532,5.7549,5.7589,5.7612,5.7643,5.7646,5.7616,5.7721,5.768,5.7726,5.7726,5.7748,5.7747,5.7882,5.7764,5.7763,5.7763,5.7763,0,5.7301,5.7357,5.7371,5.741,5.7473,5.7476,5.7538,5.7552,5.7578,5.762,5.7608,5.7647,5.765,5.769,5.7693,5.7754,5.7764,5.7769,5.7769,5.777,5.7769,5.7784,5.7778,5.7767,5.7766,5.7765,5.7765,0,5.7391,5.7402,5.7472,5.7504,5.7513,5.7558,5.7585,5.7623,5.7633,5.7686,5.7698,5.7714,5.7761,5.7768,5.7822,5.7824,5.7898,5.7891,5.7888,5.7887,5.7933,5.7929,5.8082,5.8102,5.7971,5.7972,5.7973,0,5.7454,5.7497,5.7535,5.7563,5.7583,5.7628,5.7656,5.766,5.7689,5.7729,5.7762,5.7808,5.7845,5.7921,5.7936,5.7978,5.7973,5.8024,5.7979,5.7979,5.7974,5.7971,5.7976,5.8032,5.8033,5.8034,5.8035,0,5.7564,5.7569,5.761,5.7655,5.7689,5.7724,5.7756,5.778,5.7788,5.7822,5.7871,5.79,5.7958,5.8004,5.8046,5.8062,5.8051,5.805,5.8063,5.8064,5.806,5.8063,5.7912,5.8046,5.8045,5.8044,5.8043,5.8043,5.7643,5.7682,5.7715,5.7762,5.7788,5.7819,5.7857,5.7873,5.7915,5.7963,5.7963,5.8017,5.8047,5.8103,5.8123,5.8165,5.8148,5.8167,5.8172,5.8176,5.8181,5.8055,5.8172,5.8172,5.8172,5.8172,5.8171,0,5.7753,5.7775,5.7818,5.7866,5.7903,5.7891,5.7928,5.7959,5.8008,5.8038,5.8076,5.8133,5.8179,5.8199,5.8243,5.8273,5.8269,5.8284,5.8282,5.8286,5.8193,5.8178,5.8287,5.8287,5.8287,5.8287,5.8287,5.8287,5.7815,5.788,5.7889,5.7967,5.7988,5.8042,5.8064,5.8093,5.8118,5.8183,5.8222,5.8235,5.8262,5.8309,5.835,5.8354,5.8371,5.839,5.8392,5.8304,5.8293,5.8281,5.8267,5.8393,5.8393,5.8481,5.8482,5.8483]}]]